EJA337 KSDL-KTUS

Flight info

Callsign EJA337
Flight time 0h 30m
Altitude 23000
Route BNYRD6 TFD DINGO6
Aircraft E55P/M-SBDGRW/LB2

Departure

Time 2026-04-24 21:11
Airport Scottsdale Airport (KSDL)

Arrival

Time 2026-04-24 21:42
Airport Tucson International Airport (KTUS)
Time Latitude Longitude Altitude Speed Heading
2026-04-24 20:54 33.62210 -111.91335 1467 ft 0 kts 314°
2026-04-24 21:07 33.62210 -111.91352 1467 ft 5 kts 230°
2026-04-24 21:07 33.62167 -111.91339 1466 ft 7 kts 123°
2026-04-24 21:08 33.62198 -111.91273 1468 ft 15 kts 43°
2026-04-24 21:08 33.62303 -111.91151 1472 ft 24 kts 45°
2026-04-24 21:08 33.62433 -111.91002 1477 ft 27 kts 44°
2026-04-24 21:08 33.62574 -111.90839 1483 ft 28 kts 43°
2026-04-24 21:09 33.62713 -111.90677 1488 ft 27 kts 44°
2026-04-24 21:09 33.62851 -111.90519 1491 ft 27 kts 44°
2026-04-24 21:09 33.62986 -111.90363 1497 ft 27 kts 44°
2026-04-24 21:09 33.63102 -111.90231 1501 ft 16 kts 44°
2026-04-24 21:10 33.63137 -111.90176 1503 ft 2 kts 94°
2026-04-24 21:10 33.63137 -111.90175 1503 ft 0 kts 97°
2026-04-24 21:10 33.63136 -111.90171 1503 ft 2 kts 104°
2026-04-24 21:10 33.63117 -111.90138 1503 ft 6 kts 139°
2026-04-24 21:11 33.63076 -111.90145 1502 ft 9 kts 223°
2026-04-24 21:11 33.62885 -111.90364 1495 ft 80 kts 223°
2026-04-24 21:11 33.62314 -111.91025 1651 ft 136 kts 224°
2026-04-24 21:11 33.61656 -111.91928 2295 ft 158 kts 243°
2026-04-24 21:12 33.61593 -111.93297 2962 ft 184 kts 289°
2026-04-24 21:12 33.62108 -111.94129 3500 ft 198 kts 320°
2026-04-24 21:12 33.63909 -111.94939 4514 ft 223 kts 345°
2026-04-24 21:12 33.65405 -111.95361 5213 ft 222 kts 343°
2026-04-24 21:13 33.66927 -111.95805 5686 ft 225 kts 344°
2026-04-24 21:13 33.68441 -111.96246 5941 ft 223 kts 343°
2026-04-24 21:13 33.69930 -111.96792 6014 ft 224 kts 327°
2026-04-24 21:13 33.70910 -111.98164 6030 ft 220 kts 286°
2026-04-24 21:14 33.70887 -111.99985 6029 ft 220 kts 246°
2026-04-24 21:14 33.69967 -112.01412 6178 ft 217 kts 222°
2026-04-24 21:14 33.68804 -112.02570 6636 ft 218 kts 220°
2026-04-24 21:14 33.67626 -112.03745 7383 ft 231 kts 219°
2026-04-24 21:15 33.66355 -112.04961 8271 ft 241 kts 219°
2026-04-24 21:15 33.65034 -112.06233 9268 ft 247 kts 220°
2026-04-24 21:15 33.63718 -112.07510 10301 ft 250 kts 220°
2026-04-24 21:15 33.62234 -112.08530 11330 ft 256 kts 198°
2026-04-24 21:16 33.60454 -112.08656 12347 ft 264 kts 180°
2026-04-24 21:16 33.58625 -112.08425 13311 ft 270 kts 177°
2026-04-24 21:16 33.56765 -112.08086 14236 ft 276 kts 176°
2026-04-24 21:16 33.54869 -112.07713 15134 ft 282 kts 176°
2026-04-24 21:17 33.52911 -112.07317 16059 ft 287 kts 177°
2026-04-24 21:17 33.50941 -112.06919 16944 ft 292 kts 178°
2026-04-24 21:17 33.48938 -112.06517 17787 ft 297 kts 178°
2026-04-24 21:17 33.47588 -112.06243 18358 ft 300 kts 178°
2026-04-24 21:18 33.44821 -112.05685 19531 ft 305 kts 179°
2026-04-24 21:18 33.42736 -112.05263 20393 ft 308 kts 179°
2026-04-24 21:18 33.40625 -112.04839 21203 ft 312 kts 179°
2026-04-24 21:18 33.38474 -112.04407 21920 ft 319 kts 179°
2026-04-24 21:19 33.36235 -112.03955 22493 ft 330 kts 179°
2026-04-24 21:19 33.33921 -112.03494 22830 ft 347 kts 179°
2026-04-24 21:19 33.31451 -112.03000 22878 ft 371 kts 178°
2026-04-24 21:19 33.28836 -112.02474 22890 ft 393 kts 178°
2026-04-24 21:20 33.23330 -112.01359 22883 ft 403 kts 178°
2026-04-24 21:20 33.20581 -112.00806 22885 ft 404 kts 178°
2026-04-24 21:20 33.17812 -112.00250 22886 ft 404 kts 178°
2026-04-24 21:21 33.15031 -111.99692 22886 ft 405 kts 178°
2026-04-24 21:21 33.12221 -111.99129 22892 ft 406 kts 178°
2026-04-24 21:21 33.09441 -111.98573 22889 ft 406 kts 178°
2026-04-24 21:21 33.06668 -111.98019 22880 ft 407 kts 177°
2026-04-24 21:22 33.03858 -111.97456 22872 ft 408 kts 177°
2026-04-24 21:22 33.01069 -111.96896 22843 ft 409 kts 177°
2026-04-24 21:22 32.98273 -111.95929 22547 ft 428 kts 162°
2026-04-24 21:22 32.96484 -111.94955 22197 ft 434 kts 163°
2026-04-24 21:23 32.92779 -111.93042 21448 ft 434 kts 162°
2026-04-24 21:23 32.90003 -111.91613 20892 ft 432 kts 162°
2026-04-24 21:23 32.87374 -111.89935 20351 ft 439 kts 149°
2026-04-24 21:23 32.84891 -111.87833 19831 ft 434 kts 151°
2026-04-24 21:24 32.82421 -111.85774 19325 ft 431 kts 149°
2026-04-24 21:24 32.80004 -111.83775 18825 ft 427 kts 150°
2026-04-24 21:24 32.77586 -111.81768 18326 ft 422 kts 150°
2026-04-24 21:24 32.75178 -111.79780 17826 ft 418 kts 149°
2026-04-24 21:25 32.72816 -111.77826 17329 ft 414 kts 149°
2026-04-24 21:25 32.70457 -111.75878 16829 ft 410 kts 149°
2026-04-24 21:25 32.68150 -111.73971 16325 ft 406 kts 149°
2026-04-24 21:25 32.65819 -111.72047 15777 ft 402 kts 149°
2026-04-24 21:26 32.63536 -111.70167 15237 ft 399 kts 149°
2026-04-24 21:26 32.61278 -111.68308 14704 ft 395 kts 149°
2026-04-24 21:26 32.59035 -111.66462 14171 ft 391 kts 148°
2026-04-24 21:26 32.56834 -111.64648 13640 ft 387 kts 148°
2026-04-24 21:27 32.54729 -111.62695 13097 ft 387 kts 136°
2026-04-24 21:27 32.53134 -111.60122 12655 ft 383 kts 129°
2026-04-24 21:27 32.51550 -111.57630 12207 ft 377 kts 128°
2026-04-24 21:27 32.50527 -111.55985 12038 ft 373 kts 129°
2026-04-24 21:28 32.48437 -111.52717 11987 ft 372 kts 132°
2026-04-24 21:28 32.46708 -111.50433 11984 ft 371 kts 134°
2026-04-24 21:28 32.45009 -111.48154 11990 ft 370 kts 134°
2026-04-24 21:28 32.43311 -111.45890 11990 ft 370 kts 134°
2026-04-24 21:29 32.41614 -111.43617 11987 ft 370 kts 134°
2026-04-24 21:29 32.39898 -111.41327 11984 ft 370 kts 134°
2026-04-24 21:29 32.38200 -111.39055 11987 ft 370 kts 134°
2026-04-24 21:29 32.36490 -111.36772 11985 ft 370 kts 134°
2026-04-24 21:30 32.34784 -111.34493 11976 ft 371 kts 134°
2026-04-24 21:30 32.33071 -111.32198 11973 ft 371 kts 134°
2026-04-24 21:30 32.31362 -111.29914 11972 ft 372 kts 134°
2026-04-24 21:30 32.29645 -111.27611 11981 ft 372 kts 134°
2026-04-24 21:31 32.27945 -111.25330 11982 ft 373 kts 134°
2026-04-24 21:31 32.26232 -111.23033 11982 ft 374 kts 134°
2026-04-24 21:31 32.24513 -111.20720 11983 ft 375 kts 134°
2026-04-24 21:31 32.22789 -111.18411 11877 ft 365 kts 134°
2026-04-24 21:32 32.21159 -111.16211 11620 ft 349 kts 134°
2026-04-24 21:32 32.19610 -111.14127 11350 ft 333 kts 134°
2026-04-24 21:32 32.18120 -111.12110 11072 ft 319 kts 134°
2026-04-24 21:32 32.16684 -111.10159 10715 ft 312 kts 134°
2026-04-24 21:33 32.15268 -111.08239 10313 ft 307 kts 134°
2026-04-24 21:33 32.14333 -111.06978 10045 ft 303 kts 134°
2026-04-24 21:33 32.12510 -111.04528 9506 ft 297 kts 134°
2026-04-24 21:33 32.11160 -111.02718 9097 ft 292 kts 134°
2026-04-24 21:34 32.09830 -111.00938 8692 ft 288 kts 134°
2026-04-24 21:34 32.08522 -110.99184 8316 ft 283 kts 134°
2026-04-24 21:34 32.07224 -110.97430 8051 ft 279 kts 134°
2026-04-24 21:34 32.05966 -110.95731 8008 ft 270 kts 134°
2026-04-24 21:35 32.04765 -110.94099 8000 ft 262 kts 134°
2026-04-24 21:35 32.03605 -110.92519 7954 ft 249 kts 134°
2026-04-24 21:35 32.02486 -110.90989 7696 ft 240 kts 134°
2026-04-24 21:35 32.01426 -110.89536 7396 ft 235 kts 134°
2026-04-24 21:36 32.00355 -110.88075 7005 ft 234 kts 134°
2026-04-24 21:36 31.99301 -110.86624 6658 ft 231 kts 134°
2026-04-24 21:36 31.98266 -110.85222 6308 ft 228 kts 134°
2026-04-24 21:36 31.97222 -110.83820 5949 ft 227 kts 132°
2026-04-24 21:37 31.96718 -110.82095 5641 ft 231 kts 87°
2026-04-24 21:37 31.97367 -110.80426 5520 ft 220 kts 42°
2026-04-24 21:37 31.98664 -110.79734 5412 ft 203 kts
2026-04-24 21:37 31.99945 -110.80138 5217 ft 185 kts 313°
2026-04-24 21:38 32.00821 -110.81207 5097 ft 181 kts 308°
2026-04-24 21:38 32.01679 -110.82271 4986 ft 177 kts 308°
2026-04-24 21:38 32.02547 -110.83292 4806 ft 177 kts 312°
2026-04-24 21:38 32.03415 -110.84305 4596 ft 173 kts 309°
2026-04-24 21:39 32.04248 -110.85284 4378 ft 161 kts 309°
2026-04-24 21:39 32.04985 -110.86153 4164 ft 141 kts 308°
2026-04-24 21:39 32.05647 -110.86958 3931 ft 131 kts 309°
2026-04-24 21:39 32.06292 -110.87686 3722 ft 126 kts 310°
2026-04-24 21:40 32.06898 -110.88398 3563 ft 121 kts 309°
2026-04-24 21:40 32.07482 -110.89092 3404 ft 117 kts 307°
2026-04-24 21:40 32.08043 -110.89760 3266 ft 114 kts 309°
2026-04-24 21:40 32.08608 -110.90416 3137 ft 112 kts 311°
2026-04-24 21:41 32.09164 -110.91067 2983 ft 113 kts 309°
2026-04-24 21:41 32.09719 -110.91717 2816 ft 111 kts 308°
2026-04-24 21:41 32.10263 -110.92356 2662 ft 107 kts 308°
2026-04-24 21:41 32.10719 -110.92892 2631 ft 67 kts 314°
2026-04-24 21:42 32.10978 -110.93196 2623 ft 35 kts 315°
2026-04-24 21:42 32.11111 -110.93266 2621 ft 18 kts 32°
2026-04-24 21:42 32.11223 -110.93233 2619 ft 19 kts 312°
2026-04-24 21:42 32.11333 -110.93362 2617 ft 27 kts 315°
2026-04-24 21:43 32.11478 -110.93533 2614 ft 30 kts 315°
2026-04-24 21:43 32.11626 -110.93703 2609 ft 30 kts 314°
2026-04-24 21:43 32.11778 -110.93883 2604 ft 29 kts 314°
2026-04-24 21:43 32.11922 -110.94051 2600 ft 29 kts 315°
2026-04-24 21:44 32.12067 -110.94222 2594 ft 28 kts 314°
2026-04-24 21:44 32.12212 -110.94392 2589 ft 29 kts 315°
2026-04-24 21:44 32.12352 -110.94554 2583 ft 24 kts 315°
2026-04-24 21:44 32.12468 -110.94692 2578 ft 20 kts 317°
2026-04-24 21:45 32.12566 -110.94652 2578 ft 17 kts 45°
2026-04-24 21:45 32.12632 -110.94554 2577 ft 12 kts 109°
2026-04-24 21:45 32.12602 -110.94542 2578 ft 2 kts 153°
2026-04-24 21:45 32.12597 -110.94537 2578 ft 0 kts 135°